[[{"header":{"parameterUnit":"m.s-1","parameterCategory":1,"la1":30.2992,"la2":30.254,"lo1":-89.0895,"lo2":-89.0443,"dy":0.0025,"dx":0.0025,"nx":19,"ny":19,"refTime":"2026-04-11T09:00:00:Z","depth":0,"parameterNumber":2,"parameterNumberName":"U-component_of_WINDS"},"data":[0,0,0,-3.4917,-3.4917,-3.4907,-3.4907,-3.4931,-3.4931,0,0,0,0,0,0,0,0,0,0,0,-3.494,-3.4941,-3.4917,-3.4917,-3.4907,-3.4907,-3.4931,-3.4931,0,0,0,0,0,0,0,0,0,0,0,-3.494,-3.494,-3.4941,-3.4917,-3.4907,-3.4907,-3.4931,-3.4926,0,0,0,0,0,0,0,0,0,0,-3.493,-3.4969,-3.494,-3.4942,-3.4917,-3.4907,-3.4907,-3.4925,-3.4926,-3.4951,0,-3.4976,0,-3.4954,-3.4935,-3.4935,0,0,0,-3.4903,-3.4968,-3.4948,-3.4942,-3.4917,-3.4907,-3.4908,-3.4925,-3.4927,-3.4953,-3.4976,-3.4976,-3.4955,-3.4936,-3.4936,-3.5126,-3.5128,0,0,-3.4903,-3.4949,-3.4947,-3.495,-3.4951,-3.4908,-3.4907,-3.4925,-3.4955,-3.4976,-3.4976,-3.4955,-3.4936,-3.4936,-3.5125,-3.5127,0,0,0,-3.4915,-3.495,-3.4928,-3.495,-3.4945,-3.4908,-3.4907,-3.4954,-3.4943,-3.4976,-3.4956,-3.4936,-3.4937,-3.5123,-3.5125,-3.525,0,0,0,-3.4914,-3.4956,-3.4929,-3.4957,-3.4945,-3.4949,-3.4936,-3.4941,-3.4942,-3.4955,-3.4936,-3.4938,-3.5121,-3.5124,-3.5242,-3.5301,0,0,0,-3.4934,-3.4958,-3.4964,-3.4959,-3.4956,-3.4947,-3.4937,-3.494,-3.4931,-3.4936,-3.4938,-3.512,-3.5124,-3.5236,-3.529,-3.5368,0,0,0,-3.4968,-3.5072,-3.4966,-3.5075,-3.4957,-3.5023,-3.4936,-3.4983,-3.5002,-3.4937,-3.5121,-3.5125,-3.5234,-3.5283,-3.5361,-3.5442,-3.548,0,0,-3.5124,-3.5092,-3.5153,-3.5058,-3.5155,-3.5021,-3.5137,-3.511,-3.5069,-3.511,-3.5114,-3.5245,-3.5289,-3.5366,-3.567,-3.57,0,0,0,-3.5218,-3.5263,-3.5278,-3.5299,-3.5282,-3.5274,-3.5225,-3.5217,-3.525,-3.5099,-3.5291,-3.5316,-3.5359,-3.5396,-3.5422,-3.5458,-3.5143,-3.5143,-3.5143,-3.5505,-3.5448,-3.5546,-3.549,-3.5512,-3.5463,-3.5477,-3.5457,-3.5391,-3.5438,-3.5451,-3.5642,-3.5687,-3.5706,-3.5745,-3.5487,-3.5487,-3.5488,-3.5488,-3.5732,-3.5788,-3.5702,-3.5766,-3.5707,-3.5762,-3.5721,-3.5674,-3.5719,-3.5626,-3.5662,-3.5569,-3.5741,-3.5772,-3.5497,-3.5495,-3.5494,-3.5493,-3.5493,-3.5915,-3.5933,-3.5921,-3.5949,-3.5978,-3.5917,-3.5966,-3.5909,-3.5856,-3.5891,-3.5901,-3.5899,-3.5893,-3.5899,-3.59,-3.5901,-3.5901,-3.5902,-3.5902,-3.6111,-3.6094,-3.6141,-3.6136,-3.6145,-3.615,-3.6106,-3.6114,-3.6109,-3.6065,-3.6064,-3.5998,-3.5767,-3.5712,-3.5912,-3.5911,-3.5909,-3.5908,-3.5908,-3.6366,-3.63,-3.6373,-3.6382,-3.6375,-3.6411,-3.6339,-3.6362,-3.636,-3.6387,-3.6314,-3.6151,-3.6114,-3.6093,-3.6048,-3.6323,-3.6323,-3.6323,-3.6323,-3.6523,-3.6499,-3.6563,-3.6583,-3.6596,-3.654,-3.663,-3.66,-3.6558,-3.6555,-3.6507,-3.6441,-3.6422,-3.6396,-3.6369,-3.6325,-3.6665,-3.6665,-3.6666,-3.6679,-3.6654,-3.6739,-3.6697,-3.6689,-3.6685,-3.6768,-3.6798,-3.6737,-3.6678,-3.6553,-3.6538,-3.6431,-3.6398,-3.6337,-3.6296,-3.6215,0,0]},{"header":{"parameterUnit":"m.s-1","parameterCategory":1,"la1":30.2992,"la2":30.254,"lo1":-89.0895,"lo2":-89.0443,"dy":0.0025,"dx":0.0025,"nx":19,"ny":19,"refTime":"2026-04-11T09:00:00:Z","depth":0,"parameterNumber":3,"parameterNumberName":"V-component_of_WINDS"},"data":[0,0,0,1.8945,1.8944,1.8931,1.8931,1.8906,1.8906,0,0,0,0,0,0,0,0,0,0,0,1.8945,1.8945,1.8945,1.8944,1.8931,1.8931,1.8907,1.8906,0,0,0,0,0,0,0,0,0,0,0,1.8945,1.8945,1.8945,1.8944,1.8931,1.8931,1.8907,1.8919,0,0,0,0,0,0,0,0,0,0,1.8933,1.893,1.8945,1.8945,1.8944,1.8931,1.8931,1.892,1.8918,1.8909,0,1.8902,0,1.8904,1.8904,1.8904,0,0,0,1.8946,1.8931,1.8931,1.8945,1.8944,1.8931,1.8938,1.8919,1.8917,1.8907,1.8902,1.8901,1.8904,1.8904,1.8904,1.8852,1.8852,0,0,1.8947,1.894,1.8932,1.893,1.8934,1.8938,1.8937,1.8918,1.8911,1.8902,1.8901,1.8903,1.8904,1.8904,1.8852,1.8852,0,0,0,1.8948,1.8941,1.8941,1.8931,1.8929,1.8938,1.8937,1.8912,1.8913,1.8901,1.8903,1.8904,1.8903,1.8853,1.8852,1.8829,0,0,0,1.8948,1.8941,1.8941,1.8937,1.893,1.8921,1.8931,1.8914,1.8912,1.8903,1.8904,1.8903,1.8853,1.8852,1.883,1.8818,0,0,0,1.8947,1.8941,1.8939,1.8937,1.8932,1.8921,1.8921,1.8914,1.8913,1.8904,1.8903,1.8853,1.8852,1.8832,1.882,1.8801,0,0,0,1.8943,1.8917,1.8938,1.891,1.8932,1.8908,1.8921,1.8904,1.8893,1.8903,1.8853,1.8852,1.8832,1.8821,1.8803,1.8783,1.8775,0,0,1.8907,1.8913,1.8897,1.8915,1.8887,1.8911,1.8878,1.8874,1.8878,1.886,1.8859,1.883,1.882,1.8802,1.8735,1.8729,0,0,0,1.8883,1.8871,1.8865,1.8856,1.8854,1.885,1.8852,1.8851,1.8836,1.8868,1.882,1.8814,1.8803,1.8794,1.8788,1.8778,1.8848,1.8848,1.8849,1.882,1.8829,1.8803,1.881,1.8801,1.8805,1.8797,1.8796,1.8806,1.8795,1.8788,1.8747,1.8736,1.8732,1.8722,1.8781,1.878,1.878,1.878,1.8765,1.8749,1.8766,1.8746,1.8756,1.8739,1.8741,1.8749,1.8734,1.8753,1.8743,1.876,1.8724,1.8716,1.8779,1.8779,1.8779,1.8779,1.8779,1.8722,1.8716,1.8717,1.8705,1.8695,1.8704,1.8688,1.8698,1.8706,1.8697,1.869,1.8691,1.869,1.8694,1.8694,1.8694,1.8694,1.8694,1.8694,1.8676,1.8678,1.8665,1.8662,1.8657,1.8653,1.8657,1.8653,1.865,1.8657,1.8657,1.8667,1.8721,1.8732,1.8691,1.8692,1.8692,1.8692,1.8692,1.8612,1.8629,1.8608,1.8604,1.8601,1.859,1.8604,1.8594,1.8591,1.8583,1.8597,1.8636,1.8642,1.8646,1.8655,1.8597,1.8597,1.8597,1.8597,1.8573,1.8579,1.856,1.8553,1.8547,1.8558,1.8532,1.8536,1.8542,1.8541,1.8552,1.8566,1.8571,1.8574,1.858,1.8588,1.8514,1.8514,1.8514,1.8533,1.8539,1.8516,1.8524,1.8523,1.8522,1.8498,1.8488,1.8498,1.8511,1.854,1.8543,1.8567,1.8575,1.8584,1.8593,1.8609,0,0]}]]